Texarkana, AR

1:04 PM CDT on June 22, 2017 (GMT -0500)
Texarkana Regional-Webb

Weather History for KTXK - May, 2013

Change the Weather History Date:

Sunday, May 19, 2013

  Actual Average Record
Temperature  
Mean Temperature 79 °F 72 °F  
Max Temperature 89 °F 83 °F 97 °F (2006)
Min Temperature 68 °F 62 °F 45 °F (2002)
Degree Days  
Heating Degree Days 0 0  
Month to date heating degree days 51 12  
Since 1 July heating degree days 2550 2615  
Cooling Degree Days 14 8  
Month to date cooling degree days 78 112  
Year to date cooling degree days 160 209  
Growing Degree Days 29 (Base 50)    
Moisture  
Dew Point 67 °F    
Average Humidity 69    
Maximum Humidity 90    
Minimum Humidity 47    
Precipitation  
Precipitation 0.00 in 0.16 in 3.43 in (2000)
Month to date precipitation 0.94 3.30  
Year to date precipitation 11.76 18.83  
Snow  
Snow 0.00 in - - ()
Month to date snowfall 0.0  
Since 1 July snowfall 2.1  
Snow Depth 0.00 in    
Sea Level Pressure  
Sea Level Pressure 29.84 in    
Wind  
Wind Speed 11 mph (South)    
Max Wind Speed 22 mph    
Max Gust Speed 29 mph    
Visibility 9 miles    
Events      
T = Trace of Precipitation, MM = Missing Value Source: NWS Daily Summary

Daily Weather History Graph

Daily Weather History Graph

Search for Another Location

Airport or City:

Trip Planner

Search our weather history database for the weather conditions in past years. The results will help you decide how hot, cold, wet, or windy it might be!

Date:

Astronomy

May. 19, 2013 Rise Set
Actual Time 6:12 AM CDT 8:12 PM CDT
Civil Twilight 5:45 AM CDT 8:40 PM CDT
Nautical Twilight 5:11 AM CDT 9:13 PM CDT
Astronomical Twilight 4:35 AM CDT 9:49 PM CDT
Moon 2:33 PM CDT (5/19) 2:18 AM CDT (5/19)
Length of Visible Light 14h 55m
Length of Day
13h 59m
Waxing Gibbous, 65% of the Moon is Illuminated
May 19
Waxing Gibbous
May 24
Full
May 31
Last Quarter
Jun 8
New
Jun 16
First Quarter

Hourly Weather History & Observations

Time (CDT) Temp. Heat Index Dew Point Humidity Pressure Visibility Wind Dir Wind Speed Gust Speed Precip Events Conditions
12:53 AM 75.9 °F - 69.1 °F 79% 29.86 in 10.0 mi South 10.4 mph - N/A   Clear
1:53 AM 75.0 °F - 68.0 °F 79% 29.86 in 10.0 mi South 10.4 mph - N/A   Clear
2:53 AM 73.0 °F - 66.9 °F 81% 29.84 in 10.0 mi South 8.1 mph - N/A   Clear
3:53 AM 71.1 °F - 66.0 °F 84% 29.85 in 9.0 mi SSW 5.8 mph - N/A   Clear
4:53 AM 69.1 °F - 66.0 °F 90% 29.86 in 8.0 mi South 5.8 mph - N/A   Clear
5:53 AM 69.1 °F - 66.0 °F 90% 29.86 in 8.0 mi SSE 6.9 mph - N/A   Clear
6:26 AM 69.8 °F - 66.2 °F 88% 29.89 in 6.0 mi South 5.8 mph - N/A   Mostly Cloudy
7:53 AM 71.1 °F - 68.0 °F 90% 29.88 in 6.0 mi South 9.2 mph - N/A   Overcast
8:53 AM 73.0 °F - 68.0 °F 84% 29.89 in 7.0 mi South 12.7 mph 18.4 mph N/A   Mostly Cloudy
9:19 AM 75.2 °F - 68.0 °F 78% 29.91 in 9.0 mi South 10.4 mph 20.7 mph 0.01 in   Mostly Cloudy
9:53 AM 77.0 °F - 66.9 °F 71% 29.89 in 10.0 mi SSW 15.0 mph 20.7 mph 0.01 in   Partly Cloudy
10:53 AM 78.1 °F - 68.0 °F 71% 29.89 in 10.0 mi South 10.4 mph 18.4 mph N/A   Partly Cloudy
11:53 AM 81.0 °F 84.1 °F 69.1 °F 67% 29.88 in 10.0 mi South 12.7 mph - N/A   Clear
12:53 PM 84.0 °F 87.0 °F 68.0 °F 58% 29.86 in 10.0 mi SSW 10.4 mph 19.6 mph N/A   Partly Cloudy
3:53 PM 89.1 °F 92.9 °F 68.0 °F 50% 29.80 in 10.0 mi SSE 16.1 mph 23.0 mph N/A   Clear
4:53 PM 89.1 °F 91.3 °F 66.0 °F 46% 29.78 in 10.0 mi South 13.8 mph 23.0 mph N/A   Clear
5:53 PM 88.0 °F 90.7 °F 66.9 °F 49% 29.76 in 10.0 mi South 16.1 mph 27.6 mph N/A   Clear
6:53 PM 86.0 °F 89.4 °F 68.0 °F 55% 29.75 in 10.0 mi SSE 12.7 mph 21.9 mph N/A   Clear
7:53 PM 82.9 °F 85.4 °F 66.9 °F 58% 29.78 in 10.0 mi South 8.1 mph - N/A   Clear
8:53 PM 81.0 °F 82.5 °F 64.0 °F 56% 29.79 in 10.0 mi South 11.5 mph 20.7 mph N/A   Clear
9:53 PM 80.1 °F 81.9 °F 64.9 °F 60% 29.81 in 10.0 mi South 11.5 mph 19.6 mph N/A   Clear
11:53 PM 77.0 °F - 66.9 °F 71% 29.83 in 10.0 mi South 11.5 mph - N/A   Clear